KS8S Weather Reports


time (UTC)temp
F
wind
direction
speed
knots
gust
knots
rain 1hr
in
rain 24hr
in
rain mn
in
humidity
%
barometer
mb
20260506204505 54 280 8.7 13.9 0.00 0.50 0.16 41 1013.1
20260506203020 54 285 7.8 12.2 0.00 0.52 0.16 43 1013.1
20260506201519 54 269 9.6 13.0 0.00 0.54 0.16 44 1013.0
20260506200013 54 300 6.1 12.2 0.00 0.56 0.16 41 1013.0
20260506194516 54 270 7.8 10.4 0.00 0.58 0.16 43 1012.9
20260506193010 54 300 6.1 9.6 0.00 0.58 0.16 44 1013.0
20260506191505 54 277 7.0 11.3 0.00 0.60 0.16 41 1013.0
20260506190006 54 292 7.0 12.2 0.00 0.60 0.16 41 1013.1
20260506184522 54 276 7.0 12.2 0.00 0.61 0.16 43 1013.0
20260506183018 55 254 7.0 11.3 0.00 0.63 0.16 42 1012.8
20260506181518 55 275 7.8 11.3 0.00 0.64 0.16 42 1012.5
20260506180014 56 330 6.1 11.3 0.00 0.67 0.16 43 1012.7
20260506174510 55 271 7.8 12.2 0.00 0.68 0.16 44 1012.7
20260506173006 54 267 4.3 10.4 0.00 0.70 0.16 47 1012.9
20260506171524 54 286 8.7 12.2 0.00 0.71 0.16 46 1013.0
20260506170023 54 317 7.8 14.8 0.00 0.72 0.16 44 1013.0
20260506164520 54 287 6.1 12.2 0.00 0.73 0.16 47 1013.2
20260506163031 54 272 5.2 9.6 0.00 0.73 0.16 46 1013.2
20260506161511 53 62 4.3 11.3 0.00 0.73 0.16 52 1013.2
20260506160017 53 327 6.1 13.0 0.00 0.73 0.16 48 1013.1
20260506154525 53 321 6.1 11.3 0.00 0.73 0.16 53 1013.1
20260506153025 53 321 5.2 11.3 0.00 0.73 0.16 46 1012.9
20260506151521 52 334 7.8 12.2 0.00 0.73 0.16 52 1012.7
20260506150027 52 306 4.3 9.6 0.00 0.73 0.16 54 1012.8
20260506144523 52 328 4.3 11.3 0.00 0.73 0.16 56 1012.4
20260506143012 51 326 5.2 11.3 0.00 0.73 0.16 54 1012.2
20260506141526 51 15 5.2 9.6 0.00 0.73 0.16 57 1012.0
20260506140026 50 338 6.1 12.2 0.00 0.73 0.16 58 1012.0
20260506134523 50 344 2.6 11.3 0.00 0.73 0.16 61 1011.8
20260506133021 49 329 5.2 10.4 0.00 0.73 0.16 67 1012.1
20260506131520 48 338 4.3 9.6 0.00 0.73 0.16 71 1011.8
20260506130016 47 305 2.6 7.8 0.00 0.73 0.16 77 1011.6
20260506124527 46 338 4.3 8.7 0.00 0.73 0.16 79 1011.3
20260506123011 46 330 2.6 7.0 0.00 0.73 0.16 82 1011.2
20260506121509 46 311 5.2 9.6 0.00 0.73 0.16 84 1011.2
20260506120006 45 285 6.1 7.8 0.00 0.73 0.16 87 1010.9
20260506114504 44 278 2.6 7.8 0.00 0.73 0.16 88 1010.6
20260506113022 44 273 4.3 7.0 0.00 0.73 0.16 87 1010.7
20260506111519 44 279 3.5 7.0 0.00 0.73 0.16 87 1010.4
20260506110015 44 279 4.3 7.8 0.00 0.73 0.16 87 1010.4
20260506104510 44 271 6.1 7.8 0.00 0.73 0.16 88 1010.3
20260506103010 44 260 3.5 5.2 0.00 0.73 0.16 88 1009.8
20260506101508 43 269 2.6 5.2 0.00 0.73 0.16 87 1009.6
20260506100023 43 286 3.5 6.1 0.00 0.73 0.16 87 1009.6
20260506094521 43 287 2.6 5.2 0.00 0.73 0.16 88 1009.5
20260506093019 43 266 2.6 3.5 0.00 0.73 0.16 88 1009.6
20260506091516 43 244 2.6 2.6 0.00 0.73 0.16 88 1009.4
20260506090013 43 264 1.7 2.6 0.00 0.73 0.16 87 1009.3
20260506084508 43 269 4.3 5.2 0.01 0.73 0.16 87 1010.0
20260506083025 43 228 0.0 0.9 0.01 0.73 0.16 85 1009.2
20260506081525 43 228 0.9 3.5 0.02 0.73 0.16 86 1009.5
20260506073016 43 304 0.9 1.7 0.07 0.73 0.15 87 1009.2
20260506071513 43 304 0.0 1.7 0.07 0.72 0.14 87 1009.2
20260506061530 44 314 0.0 0.0 0.04 0.65 0.07 86 1009.0
20260506044530 45 314 0.0 0.0 0.03 0.60 0.02 88 1009.7
20260506043023 45 314 0.0 0.0 0.02 0.58 0.01 88 1009.4
20260506041522 45 313 0.0 0.0 0.02 0.58 0.01 86 1009.4
20260506040049 45 314 0.0 3.5 0.01 0.58 0.00 86 1009.6
20260506034527 46 327 1.7 4.3 0.01 0.57 0.57 87 1009.6
20260506033006 47 292 1.7 3.5 0.02 0.57 0.57 89 1009.6
20260506031519 47 221 0.0 1.7 0.02 0.57 0.57 89 1009.5
20260506030008 47 221 0.9 2.6 0.03 0.57 0.57 89 1009.6
20260506024516 47 221 0.9 2.6 0.03 0.56 0.56 91 1009.8
20260506023011 47 221 0.0 1.7 0.04 0.55 0.55 91 1009.4
20260506021510 47 221 0.0 1.7 0.06 0.55 0.55 91 1009.3
20260506020010 47 221 0.9 2.6 0.07 0.54 0.54 91 1009.3
20260506014514 47 221 1.7 3.5 0.07 0.52 0.52 91 1009.3
20260506013009 47 221 3.5 4.3 0.06 0.51 0.51 91 1009.5
20260506011512 48 221 2.6 3.5 0.05 0.49 0.49 90 1009.1
20260506010014 47 240 2.6 3.5 0.04 0.47 0.47 90 1009.0
20260506004522 47 240 1.7 3.5 0.04 0.46 0.46 89 1009.0
20260506003015 47 230 2.6 3.5 0.06 0.45 0.45 89 1009.0
20260506001516 47 230 2.6 2.6 0.09 0.44 0.44 89 1008.8
20260506000013 47 230 1.7 2.6 0.10 0.43 0.43 88 1008.8
20260505234515 48 230 1.7 3.5 0.10 0.42 0.42 88 1008.8
20260505233017 48 230 2.6 4.3 0.07 0.39 0.39 87 1008.8
20260505231526 48 257 1.7 3.5 0.03 0.35 0.35 86 1009.0
20260505230026 49 352 1.7 2.6 0.01 0.33 0.33 86 1008.9
20260505224518 49 352 0.0 0.0 0.00 0.32 0.32 87 1008.9
20260505223017 49 352 0.0 0.9 0.01 0.32 0.32 86 1008.8
20260505221517 49 352 0.0 2.6 0.02 0.32 0.32 86 1008.6
20260505220021 49 344 0.0 3.5 0.05 0.32 0.32 86 1008.6
20260505214523 49 355 1.7 4.3 0.08 0.32 0.32 86 1008.6
20260505213019 49 333 0.9 4.3 0.09 0.31 0.31 86 1008.6
20260505211520 49 318 1.7 7.8 0.10 0.30 0.30 87 1008.5
20260505210025 49 322 2.6 8.7 0.09 0.27 0.27 86 1008.5